Regional Weather Roundup
Issued by NWS

Home | Current Version | Previous Version | Graphics & Text | Print | Product List | Glossary On
Versions: 1 2 3 4 5 6 7 8 9 10 11 12 13 14 15 16 17 18 19 20 21 22 23 24 25 26 27 28 29 30 31 32 33 34 35 36 37 38 39 40 41 42 43 44 45 46 47 48 49 50
000
ASUS43 KLOT 180006
RWRIL

ILLINOIS REGIONAL WEATHER ROUNDUP
NATIONAL WEATHER SERVICE CHICAGO/ROMEOVILLE IL
600 PM CST WED DEC 17 2014

NOTE: "FAIR" INDICATES FEW OR NO CLOUDS BELOW 12,000 FEET WITH NO
SIGNIFICANT WEATHER AND/OR OBSTRUCTIONS TO VISIBILITY.

* THESE STATIONS ARE NOT UNDER NWS QUALITY CONTROL. THEY ALSO MAY NOT
  REPORT WEATHER SUCH AS PRECIPITATION OR FOG.

ILZ001-002-007-009-015-016-024-180100-
NORTHWEST ILLINOIS

CITY           SKY/WX    TMP DP  RH WIND       PRES   REMARKS
MOLINE         CLEAR     24  15  68 NW5       30.30R WCI  18
6HR MIN TEMP:  24; 6HR MAX TEMP:  29;

STERLING*      CLOUDY    25  16  68 N8        30.28S WCI  16
SAVANNA*       CLEAR     20  15  79 N3        30.29S
$$

ILZ003-004-008-010-011-017-018-180100-
NORTH CENTRAL ILLINOIS

CITY           SKY/WX    TMP DP  RH WIND       PRES   REMARKS
ROCKFORD       CLOUDY    24  15  68 NW7       30.29R WCI  16
6HR MIN TEMP:  24; 6HR MAX TEMP:  26; 6HR PCP: TRACE;

FREEPORT*      CLOUDY    21  15  78 NW8       30.29S WCI  12
ROCHELLE*      CLOUDY    23  17  79 NW7       30.28R WCI  15
DE KALB*       CLOUDY    22  16  78 W9        30.26S WCI  12
PERU*          CLOUDY    27  19  73 NW8       30.30R WCI  18
$$

ILZ005-006-012>014-019>023-180100-
NORTHEAST ILLINOIS

CITY           SKY/WX    TMP DP  RH WIND       PRES   REMARKS
CHICAGO-OHARE  CLOUDY    25  16  68 W7        30.25R WCI  17
6HR MIN TEMP:  25; 6HR MAX TEMP:  26;

CHICAGO-MIDWAY CLOUDY    27  17  66 W10       30.26R WCI  17
6HR MIN TEMP:  27; 6HR MAX TEMP:  28;

AURORA         CLOUDY    25  16  68 W9        30.27R WCI  15
6HR MIN TEMP:  25; 6HR MAX TEMP:  27;

LANSING*       CLOUDY    26  18  71 W6        30.26R WCI  20
JOLIET*        CLOUDY    26  18  72 NW6       30.28R WCI  19
WAUKEGAN       MOCLDY    24  15  68 W3        30.23S
6HR MIN TEMP:  24; 6HR MAX TEMP:  26;

DUPAGE AIRPORT CLOUDY    25  17  72 W8        30.25R WCI  16
6HR MIN TEMP:  25; 6HR MAX TEMP:  26;

KANKAKEE*      CLOUDY    27  20  76 NW7       30.28S WCI  19
WHEELING       CLOUDY    25  15  66 W8        30.27R WCI  16
6HR MIN TEMP:  25; 6HR MAX TEMP:  27;

MORRIS*        CLOUDY    26  21  80 NW7       30.27R WCI  18
ROMEOVILLE*    CLOUDY    25  17  70 NW9       30.27R WCI  16
NORTHERLY ISL    N/A     27  17  66 W8          N/A  WCI  19
$$

LMZ740>746-180100-
SOUTHERN LAKE MICHIGAN

STATION/POSITION SKY/WX   TEMP    WIND        PRES    VSBY  WAVE
                          AIR SEA DIR/SP/G                  HT/PER
                          (F)     (DEG/KT/KT) (MB)    (MI)  (FT/S)
WAUKEGAN HARBOR            25     290/  7/ 12   N/A
HARRISON CRIB              26     300/ 10/ 16   N/A
BURNHAM HARBOR             27     250/  9/ 12   N/A
CALUMET HARBOR             26     270/  6/  9 1023.2S
$$

ILZ025>027-034>036-040-047-049-050-058-095>099-180100-
WEST-CENTRAL ILLINOIS

CITY           SKY/WX    TMP DP  RH WIND       PRES   REMARKS
QUINCY         CLEAR     25  18  74 NE5       30.29F WCI  19
GALESBURG*     CLEAR     22  19  85 NW3       30.29R
MACOMB*        CLEAR     24  22  90 SW5       30.33R WCI  18
JACKSONVILLE*  CLEAR     25  20  82 N5        30.31S WCI  19
PITTSFIELD*    CLEAR     27  22  80 N6        30.29F WCI  21
$$

ILZ028>032-037-038-041>044-048-051>054-059>061-180100-
CENTRAL ILLINOIS

CITY           SKY/WX    TMP DP  RH WIND       PRES   REMARKS
PONTIAC        CLOUDY    28  21  77 NW5       30.30R WCI  22
BLOOMINGTON    CLOUDY    25  20  81 CALM      30.30R
DECATUR        CLOUDY    24  19  81 NW6       30.32R WCI  17
PEORIA         CLEAR     25  18  74 SW3       30.31R
6HR MIN TEMP:  25; 6HR MAX TEMP:  30;

LACON*         MOCLDY    26  18  72 N3        30.30R
LINCOLN*       PTCLDY    25  20  81 CALM      30.34R
SPRINGFIELD    CLEAR     24  18  77 NW3       30.33R
6HR MIN TEMP:  24; 6HR MAX TEMP:  27;

TAYLORVILLE    MOCLDY    27  23  86 NW5       30.32R WCI  21
$$

ILZ033-039-045-046-055>057-062-063-180100-
EAST-CENTRAL ILLINOIS

CITY           SKY/WX    TMP DP  RH WIND       PRES   REMARKS
CHAMPAIGN      CLOUDY    24  18  77 NW6       30.31R WCI  17
DANVILLE*      CLOUDY    24  20  82 W6        30.27R WCI  17
MATTOON        CLOUDY    24  19  81 N3        30.30R
PARIS*         CLOUDY    25  21  87 NW5       30.32R WCI  19
$$

ILZ079-100>102-180100-
SOUTHWEST ILLINOIS

CITY           SKY/WX    TMP DP  RH WIND       PRES   REMARKS
ALTON          MOCLDY    32  27  80 N8        30.30R WCI  25
BELLEVILLE     CLOUDY    34  27  76 NE6       30.29R WCI  29
CAHOKIA*       CLOUDY    36  27  69 NE7       30.29S WCI  30
SPARTA*        CLOUDY    35  28  75 CALM      30.29S
$$

ILZ064>066-069>071-074>076-080>082-084>086-088>090-092>094-180100-
SOUTH-CENTRAL ILLINOIS

CITY           SKY/WX    TMP DP  RH WIND       PRES   REMARKS
CARBONDALE     CLOUDY    36  26  67 CALM      30.30R
6HR MIN TEMP:  33; 6HR MAX TEMP:  39;

CAIRO*         MOCLDY    38  31  74 CALM      30.29S
EFFINGHAM*     CLOUDY    29  23  76 W5        30.33R WCI  24
MARION         PTCLDY    36  28  75 NE5       30.31S WCI  32
MT. VERNON     MOCLDY    30  23  74 CALM      30.30S
CENTRALIA*     MOCLDY    32  26  77 NE3       30.29S
SALEM*         MOCLDY    32  27  82 NE3       30.30S
METROPOLIS*    MOCLDY    36  30  79 CALM      30.28F
$$

ILZ067-068-072-073-078-083-087-091-180100-
SOUTHEAST ILLINOIS

CITY           SKY/WX    TMP DP  RH WIND       PRES   REMARKS
LAWRENCEVILLE  CLOUDY    30  23  75 NW8       30.32R WCI  22
FLORA*         MOCLDY    30  26  85 N3        30.32R
FAIRFIELD*     MOCLDY    31  26  84 N3        30.30S
HARRISBURG*    MOCLDY    34  27  75 CALM      30.32R
ROBINSON*      CLOUDY    29  24  81 NW7       30.33R WCI  22
CARMI*         MOCLDY    35  31  85 CALM      30.30S
$$

ABBREVIATIONS USED IN REMARKS
   TC - TEMPERATURE IN CELSIUS
  WCI - WIND CHILL INDEX
   HX - HEAT INDEX
  VSB - VISIBILITY
$$



USA.gov is the U.S. government's official web portal to all federal, state and local government web resources and services.